AZERSPACE 1

Last updated on Thu Dec 18 2025 00:02:49 GMT+0000 (Coordinated Universal Time)

1 39079U 13006B 25351.56439565 .00000158 00000+0 00000+0 0 9999 2 39079 0.0167 12.7268 0001549 274.6675 48.2158 1.00270759 46982
UTC large
Height (km)
Speed (km/s)
/
Latitude / Longitude
Inclination (degrees)
Orbital Period (minutes)
Azimuth
Elevation
Range (km)
Doppler Factor

Next 0 passes for location: London (51.5072 / 0.1276)

Sorry there are no passes over London.